Regional Weather Roundup
Issued by NWS

Home | Current Version | Previous Version | Text Only | Print | Product List | Glossary On
Versions: 1 2 3 4 5 6 7 8 9 10 11 12 13 14 15 16 17 18 19 20 21 22 23 24 25 26 27 28 29 30 31 32 33 34 35 36 37 38 39 40 41 42 43 44 45 46 47 48 49 50
000
ASUS43 KMKX 061911
RWRWI

WISCONSIN REGIONAL WEATHER ROUNDUP
NATIONAL WEATHER SERVICE MILWAUKEE/SULLIVAN WI
200 PM CDT WED MAY 06 2015

NOTE: "FAIR" INDICATES FEW OR NO CLOUDS BELOW 12,000 FEET WITH NO
SIGNIFICANT WEATHER AND/OR OBSTRUCTIONS TO VISIBILITY.

WIZ001-002-006>008-014>016-023>028-062000-
NORTHWEST WISCONSIN

CITY           SKY/WX    TMP DP  RH WIND       PRES   REMARKS
SUPERIOR ARPT  CLOUDY    46  38  73 NE13G20   30.07F
ASHLAND        CLOUDY    57  54  89 N8        30.09F
HAYWARD        CLOUDY    63  53  70 SE10      30.07F
SIREN          PTSUNNY   66  54  63 S9        30.03F
CUMBERLAND     CLOUDY    64  54  68 SE9G16    30.04F
RICE LAKE      CLOUDY    69  56  65 SE13      30.06F
CHETEK         CLOUDY    67  59  74 E9        30.05F
LADYSMITH      LGT RAIN  65  58  77 E8        30.09F
EAU CLAIRE     PTSUNNY   69  58  67 SE8       30.04F
MENOMONIE      PTSUNNY   68  59  73 E8        30.03F
NEW RICHMOND   PTSUNNY   69  57  67 E12G17    30.00F
OSCEOLA        PTSUNNY   68  59  73 SE12      30.02F
$$

WIZ003>005-009-010-017-018-062000-
NORTH CENTRAL WISCONSIN

CITY           SKY/WX    TMP DP  RH WIND       PRES   REMARKS
MANITOWISH WTR LGT RAIN  58  56  95 SE5       30.13S
ARBOR VITAE    PTSUNNY   62  56  81 SE9       30.13S
WOODRUFF       PTSUNNY   62  56  81 SE9       30.13S
RHINELANDER    PTSUNNY   63  56  78 SE9       30.15F
EAGLE RIVER    PTSUNNY   65  53  65 SE9       30.13
LAND O LAKES   CLOUDY    64  51  61 SE6       30.15F
PHILLIPS       CLOUDY    62  57  82 SE10      30.11F
TOMAHAWK       CLOUDY    61  56  84 SE3       30.14F
MEDFORD        LGT RAIN  63  55  77 SE8       30.11F
MERRILL        PTSUNNY   66  59  78 SE10      30.13F
$$

WIZ029-030-035-036-043>047-062000-
CENTRAL WISCONSIN

CITY           SKY/WX    TMP DP  RH WIND       PRES   REMARKS
WAUSAU         PTSUNNY   67  56  67 SE10      30.11F
MOSINEE        MOSUNNY   66  57  72 SE10G20   30.13F
MARSHFIELD     PTSUNNY   73  56  54 SE13      30.10F
STEVENS POINT  PTSUNNY   67  55  66 E14       30.13S
WAUPACA        PTSUNNY   69  56  63 E8        30.15F
WAUTOMA        PTSUNNY   66  59  78 E7        30.13F
WISC RAPIDS    PTSUNNY   72  55  55 S12       30.11F
CAMP DOUGLAS   PTSUNNY   72  64  78 SE9       30.07F
$$

WIZ011>013-019>022-031-037>040-048>050-062000-
NORTHEAST WISCONSIN

CITY           SKY/WX    TMP DP  RH WIND       PRES   REMARKS
ANTIGO         CLOUDY    61  57  84 SE12      30.16F
SHAWANO        CLOUDY    63  55  76 E6        30.17F
OCONTO         CLOUDY    62  51  69 SE8       30.19S
STURGEON BAY   CLOUDY    55  46  71 E8        30.23S
GREEN BAY      PTSUNNY   69  57  65 VRB6      30.17F
MANITOWOC        N/A    N/A N/A N/A MISG        N/A
APPLETON       LGT RAIN  63  55  77 SE6       30.16F HAZE
CLINTONVILLE   CLOUDY    64  54  68 SE7       30.16S
OSHKOSH        PTSUNNY   63  57  81 E9        30.15F
$$

WIZ032>034-041-042-053>061-062000-
SOUTHWEST WISCONSIN

CITY           SKY/WX    TMP DP  RH WIND       PRES   REMARKS
LA CROSSE      MOSUNNY   77  60  55 SE8       30.02F
SPARTA         PTSUNNY   73  58  60 E12       30.07F
VIROQUA        MOSUNNY   71  61  70 E13       30.06F
BOSCOBEL       PTSUNNY   74  60  61 E8        30.06F
PRAIRIE DU CHI PTSUNNY   74  59  59 SE9       30.03F
PLATTEVILLE    SUNNY     74  64  70 E10       30.07F
$$

WIZ056-057-062-063-064-067-068-062000-
SOUTH CENTRAL WISCONSIN

CITY           SKY/WX    TMP DP  RH WIND       PRES   REMARKS
REEDSBURG      MOSUNNY   69  61  74 SE6       30.09F
BARABOO/DELLS  NOT AVBL
LONE ROCK      PTSUNNY   72  62  71 E10       30.07F
MINERAL POINT  PTSUNNY   73  61  64 SE10      30.08F
MADISON        PTSUNNY   70  61  73 E8        30.11F
MIDDLETON      MOSUNNY   68  60  74 E8        30.12S
WATERTOWN      PTSUNNY   69  63  82 E7        30.13F
MONROE         MOSUNNY   72  63  73 E10       30.10F
JANESVILLE     PTSUNNY   75  61  60 SE13      30.11F
$$

WIZ051-052-058>065-066-070>072-062000-
SOUTHEAST WISCONSIN

CITY           SKY/WX    TMP DP  RH WIND       PRES   REMARKS
MILWAUKEE      PTSUNNY   56  51  84 E9        30.18F HAZE
WAUKESHA       MOSUNNY   63  54  72 E7        30.17F
MILWAUKEE/TIMM CLOUDY    55  50  82 NE8       30.19F
RACINE         CLOUDY    55  50  83 E7        30.20F HAZE
BURLINGTON     SUNNY     66  59  76 E8        30.15S HAZE
KENOSHA        PTSUNNY   59  54  83 E10       30.17F
FOND DU LAC    CLOUDY    61  56  83 SE9       30.15F
SHEBOYGAN      CLOUDY    56  52  86 E10       30.17F
WEST BEND      PTSUNNY   59  52  77 E7        30.17S
JUNEAU         CLOUDY    62  57  84 E9        30.15F
$$

LSZ147-162-062000-
LAKE SUPERIOR

STATION/POSITION TIME  TEMP    WIND        PRES    WAVE
                       AIR SEA DIR/SP/G            HT/PER
                 (UTC) (F)     (DEG/KT/KT) (MB)    (FT/S)
W MID LAKE BUOY  1850   40 36   60/  8/  8 1020.8F   0
DEVILS ISLAND    1900   44      70/  7/  9 1019.9F
PORT WING        1800   41      20/ 13/ 14 1019.0F
SAXON HARBOR     1840           20/ 10/ 12 1018.3F
$$

LMZ867-665-643>646-062000-
LAKE MICHIGAN

STATION/POSITION TIME  TEMP    WIND        PRES    WAVE
                       AIR SEA DIR/SP/G            HT/PER
                 (UTC) (F)     (DEG/KT/KT) (MB)    (FT/S)
CHAMBERS ISLAND  1800   50      20/  5/  7 1022.7F
NORTHPORT PIER   1800   45     130/  4/  8 1023.4F
SISTER BAY       1747   60     170/  9/ 11   N/A
KEWAUNEE LAKESHO 1812   46     170/  2/  5 1022.0F
SHEBOYGAN LAKESH 1900   49     150/  6/  7 1022.7F
PORT WASHINGTON  1840   47      80/  3/  4 1023.0F
ATWATER BUOY     1800   44     340/  6/  6 1023.7F
MILWAUKEE LAKESH 1800   46      50/  1/  2   N/A
KENOSHA   LAKESH 1900   45      30/  4/  5 1021.7F
$$

TC  - TEMPERATURE IN CELSIUS
VSB - VISIBILITY IN STATUTE MILES
WCI - WIND CHILL INDEX
HX  - HEAT INDEX




USA.gov is the U.S. government's official web portal to all federal, state and local government web resources and services.